FW4686 Weather Reports


time (UTC)temp
C
wind
direction
speed
KPH
gust
KPH
rain 1hr
cm
rain 24hr
cm
rain mn
cm
humidity
%
barometer
mb
20260506103118 7 311 1.6 9.7 0.15 2.44 1.09 97 1006.6
20260506102618 7 2 3.2 11.3 0.13 2.41 1.07 97 1006.6
20260506102349 7 351 3.2 14.5 0.15 2.41 1.07 97 1006.8
20260506101619 8 312 3.2 14.5 0.13 2.39 1.04 97 1006.8
20260506101119 8 312 3.2 8.0 0.13 2.39 1.04 97 1006.6
20260506100619 8 337 1.6 6.4 0.13 2.36 1.02 97 1006.5
20260506100119 8 342 3.2 8.0 0.10 2.34 0.99 97 1006.4
20260506095619 8 355 4.8 9.7 0.13 2.34 0.99 97 1006.3
20260506095120 8 353 3.2 11.3 0.13 2.31 0.97 97 1006.4
20260506094620 8 296 1.6 11.3 0.13 2.29 0.94 97 1006.4
20260506094120 8 348 3.2 8.0 0.15 2.29 0.94 97 1006.5
20260506093619 8 311 4.8 11.3 0.20 2.29 0.94 96 1006.4
20260506093120 8 309 3.2 11.3 0.23 2.29 0.94 97 1006.3
20260506092620 9 338 1.6 12.9 0.28 2.29 0.94 97 1006.3
20260506092120 9 1 1.6 12.9 0.28 2.26 0.91 97 1006.2
20260506091627 9 4 1.6 6.4 0.33 2.26 0.91 97 1006.1
20260506091620 9 324 1.6 6.4 0.30 2.26 0.91 97 1006.3
20260506090620 9 4 1.6 6.4 0.33 2.24 0.89 97 1006.1
20260506090120 9 347 0.0 6.4 0.36 2.24 0.89 97 1006.0
20260506085851 9 338 0.0 4.8 0.33 2.21 0.86 97 1006.2
20260506085120 9 354 1.6 8.0 0.30 2.18 0.84 97 1006.1
20260506084539 9 1 1.6 8.0 0.30 2.16 0.81 97 1006.2
20260506084040 9 285 0.0 0.0 0.28 2.13 0.79 97 1006.3
20260506083540 9 338 0.0 0.0 0.23 2.08 0.74 97 1006.3
20260506083039 9 333 0.0 0.0 0.20 2.03 0.71 97 1006.3
20260506082539 9 359 1.6 6.4 0.18 2.01 0.66 97 1006.3
20260506082040 9 359 1.6 6.4 0.18 1.98 0.64 97 1006.3
20260506081539 10 6 0.0 6.4 0.15 1.96 0.61 97 1006.2
20260506081041 10 1 0.0 6.4 0.13 1.93 0.58 97 1006.2
20260506080539 10 327 0.0 0.0 0.13 1.91 0.56 97 1006.2
20260506073039 10 316 0.0 0.0 0.15 1.83 0.48 97 1006.0
20260506072539 10 316 0.0 0.0 0.15 1.83 0.48 97 1006.1
20260506072310 10 316 0.0 0.0 0.15 1.80 0.46 97 1006.1
20260506071540 10 316 0.0 0.0 0.15 1.80 0.46 97 1006.0
20260506071052 10 316 0.0 0.0 0.13 1.78 0.46 97 1006.0
20260506070811 10 316 0.0 0.0 0.15 1.78 0.43 97 1006.1
20260506062039 11 311 0.0 0.0 0.15 1.65 0.30 97 1006.5
20260506061540 11 311 0.0 0.0 0.18 1.65 0.30 97 1006.6
20260506061039 11 311 0.0 0.0 0.18 1.65 0.30 97 1006.6
20260506060539 11 311 0.0 0.0 0.15 1.63 0.28 96 1006.7
20260506051039 11 311 0.0 0.0 0.10 1.47 0.13 96 1007.6
20260506050540 11 310 0.0 0.0 0.13 1.47 0.13 96 1007.7
20260506045039 11 310 0.0 0.0 0.13 1.45 0.10 96 1007.9
20260506044540 11 357 0.0 0.0 0.13 1.45 0.10 96 1007.9
20260506044039 11 357 0.0 4.8 0.13 1.45 0.10 95 1007.9
20260506043540 12 4 1.6 6.4 0.13 1.42 0.08 95 1008.0
20260506043040 12 1 0.0 8.0 0.15 1.42 0.08 96 1007.9
20260506042540 12 294 1.6 8.0 0.15 1.40 0.05 96 1007.9
20260506042039 12 300 3.2 12.9 0.25 1.40 0.05 96 1007.9
20260506041540 13 319 3.2 12.9 0.36 1.37 0.03 96 1007.9
20260506041040 13 356 3.2 12.9 0.43 1.37 0.03 96 1007.9
20260506040539 13 312 1.6 9.7 0.48 1.35 0.00 96 1007.9
20260506040041 13 311 1.6 9.7 0.51 1.35 0.00 96 1007.8
20260506035547 13 295 1.6 12.9 0.51 1.32 1.32 96 1007.8
20260506035540 13 278 1.6 9.7 0.51 1.35 1.35 96 1007.8
20260506034540 13 277 1.6 12.9 0.51 1.32 1.32 96 1007.8
20260506034310 13 258 0.0 9.7 0.51 1.32 1.32 96 1007.9
20260506033540 13 198 0.0 6.4 0.51 1.30 1.30 96 1007.9
20260506033040 13 244 0.0 6.4 0.48 1.27 1.30 96 1007.9
20260506032547 13 359 0.0 0.0 0.38 1.14 1.14 96 1007.9
20260506032540 13 359 0.0 0.0 0.48 1.24 1.24 96 1007.9
20260506031539 13 359 0.0 0.0 0.25 1.02 1.04 96 1007.9
20260506031040 13 359 0.0 0.0 0.20 0.94 0.94 95 1007.9
20260506030540 13 359 0.0 0.0 0.13 0.86 0.86 95 1008.0
20260506030052 13 359 0.0 0.0 0.10 0.84 0.84 95 1007.9
20260506025812 13 359 0.0 0.0 0.13 0.84 0.84 95 1007.9
20260506025039 13 359 0.0 0.0 0.10 0.81 0.81 95 1007.9
20260506024552 13 359 0.0 0.0 0.13 0.81 0.81 95 1007.8
20260506024040 13 359 0.0 0.0 0.13 0.81 0.81 95 1007.9
20260506023540 13 359 0.0 0.0 0.10 0.79 0.79 95 1007.9
20260506023040 13 359 0.0 0.0 0.10 0.79 0.79 94 1007.9
20260506022552 13 359 0.0 0.0 0.08 0.76 0.76 94 1007.9
20260506022040 13 359 0.0 0.0 0.08 0.76 0.76 94 1008.0
20260506021540 13 359 0.0 0.0 0.08 0.76 0.76 94 1008.0
20260506021040 13 359 0.0 0.0 0.05 0.74 0.74 94 1008.0
20260506020811 13 359 0.0 0.0 0.05 0.74 0.74 94 1008.0
20260506020053 13 359 0.0 0.0 0.08 0.74 0.74 94 1008.0
20260506015540 13 359 0.0 0.0 0.13 0.71 0.71 94 1008.2
20260506015036 13 359 0.0 0.0 0.38 0.71 0.71 93 1007.9
20260506014537 13 359 0.0 0.0 0.53 0.69 0.69 93 1007.8
20260506014044 13 359 0.0 0.0 0.64 0.69 0.69 92 1007.9
20260506014037 13 359 0.0 0.0 0.64 0.69 0.69 93 1007.7
20260506013036 13 359 0.0 0.0 0.64 0.69 0.69 92 1007.8
20260506012530 13 359 0.0 0.0 0.64 0.69 0.69 92 1007.9
20260506012029 13 359 0.0 0.0 0.64 0.69 0.69 92 1008.0
20260506011529 13 359 0.0 0.0 0.64 0.69 0.69 92 1008.0
20260506011026 13 359 0.0 6.4 0.64 0.69 0.69 91 1008.0
20260506010526 13 359 1.6 11.3 0.64 0.69 0.69 91 1008.0
20260506010257 14 340 4.8 16.1 0.61 0.66 0.66 90 1008.0
20260506005524 14 306 6.4 22.5 0.53 0.58 0.61 89 1008.7
20260506005024 15 335 8.0 22.5 0.28 0.33 0.36 88 1008.6
20260506004524 15 288 6.4 17.7 0.10 0.15 0.15 87 1007.8
20260506004024 16 291 1.6 17.7 0.00 0.05 0.08 86 1007.5
20260506003524 16 295 0.0 0.0 0.00 0.05 0.05 86 1007.3
20260506003024 16 295 0.0 0.0 0.00 0.05 0.05 86 1007.1
20260506002523 16 295 0.0 0.0 0.00 0.05 0.05 85 1007.0
20260506002024 16 295 0.0 0.0 0.00 0.05 0.05 85 1007.0
20260506001524 16 295 0.0 0.0 0.00 0.05 0.05 84 1007.1
20260506001024 16 295 0.0 0.0 0.00 0.05 0.05 84 1007.1
20260506000523 16 295 0.0 0.0 0.00 0.05 0.05 83 1007.1
20260506000024 16 295 0.0 0.0 0.00 0.05 0.05 82 1007.1
20260505235524 16 295 0.0 0.0 0.00 0.05 0.05 82 1007.1
20260505235024 16 295 0.0 0.0 0.00 0.05 0.05 82 1006.9
20260505234524 16 295 0.0 0.0 0.00 0.05 0.05 81 1007.0
20260505234024 16 295 0.0 0.0 0.00 0.05 0.05 81 1006.9
20260505233755 16 295 0.0 0.0 0.00 0.05 0.05 81 1007.0
20260505233024 16 295 0.0 0.0 0.00 0.05 0.05 81 1007.2
20260505232525 16 295 0.0 0.0 0.00 0.05 0.05 81 1007.0
20260505232255 17 295 0.0 0.0 0.00 0.05 0.05 81 1007.2
20260505231522 17 295 0.0 0.0 0.00 0.05 0.05 80 1007.2
20260505231022 17 295 0.0 0.0 0.00 0.05 0.05 80 1007.1
20260505230522 17 295 0.0 0.0 0.00 0.05 0.05 79 1007.1
20260505230022 17 295 0.0 0.0 0.00 0.05 0.05 79 1007.2
20260505225522 17 295 0.0 0.0 0.00 0.05 0.05 79 1007.3
20260505225021 17 295 0.0 0.0 0.00 0.05 0.05 78 1007.4
20260505224522 17 295 0.0 0.0 0.00 0.05 0.05 78 1007.4
20260505224022 17 295 0.0 0.0 0.00 0.05 0.05 78 1007.4
20260505223522 17 295 0.0 0.0 0.00 0.05 0.05 78 1007.5
20260505223021 17 295 0.0 0.0 0.00 0.05 0.05 78 1007.4
20260505222522 17 295 0.0 0.0 0.00 0.05 0.05 78 1007.4
20260505222022 17 295 0.0 0.0 0.00 0.05 0.05 78 1007.5
20260505221522 17 295 0.0 0.0 0.00 0.05 0.05 78 1007.5
20260505221022 17 295 0.0 0.0 0.00 0.05 0.05 78 1007.4
20260505220754 17 295 0.0 0.0 0.00 0.05 0.05 78 1007.5
20260505220022 17 298 0.0 0.0 0.00 0.05 0.05 78 1007.5
20260505215522 17 296 0.0 0.0 0.00 0.05 0.05 78 1007.5
20260505215022 16 296 0.0 4.8 0.00 0.05 0.05 78 1007.5
20260505214521 16 297 0.0 4.8 0.03 0.05 0.05 79 1007.5
20260505214021 16 291 0.0 0.0 0.03 0.05 0.05 80 1007.5
20260505213752 16 291 0.0 0.0 0.03 0.05 0.05 80 1007.5
20260505213022 16 291 0.0 0.0 0.03 0.05 0.05 80 1007.5
20260505212751 16 291 0.0 0.0 0.03 0.05 0.05 80 1007.6
20260505212021 16 291 0.0 3.2 0.03 0.05 0.05 80 1007.6
20260505211520 16 288 0.0 3.2 0.03 0.05 0.05 79 1007.6
20260505211020 17 291 0.0 1.6 0.03 0.05 0.05 78 1007.7
20260505210521 17 290 0.0 4.8 0.03 0.05 0.05 76 1007.5
20260505210021 17 281 1.6 11.3 0.03 0.05 0.05 74 1007.5
20260505205521 18 297 1.6 11.3 0.03 0.05 0.05 69 1007.7
20260505205251 19 268 0.0 11.3 0.03 0.05 0.05 63 1007.6
20260505204520 20 238 0.0 4.8 0.00 0.03 0.03 57 1007.4
20260505204021 20 277 0.0 4.8 0.00 0.03 0.03 55 1007.1
20260505203520 20 278 0.0 8.0 0.00 0.03 0.03 54 1007.1
20260505203021 20 220 0.0 8.0 0.00 0.03 0.03 54 1007.2
20260505202751 20 297 0.0 8.0 0.00 0.03 0.03 54 1007.2
20260505202020 20 163 1.6 8.0 0.00 0.03 0.03 55 1007.3
20260505201521 20 210 1.6 8.0 0.00 0.03 0.03 54 1007.5
20260505201020 20 237 1.6 8.0 0.00 0.03 0.03 54 1007.5
20260505200521 20 329 1.6 9.7 0.00 0.03 0.03 54 1007.4
20260505200252 20 251 1.6 9.7 0.00 0.03 0.03 54 1007.5
20260505195521 20 271 1.6 14.5 0.00 0.03 0.03 54 1007.7
20260505195021 20 316 1.6 14.5 0.00 0.03 0.03 54 1007.8
20260505194520 20 329 1.6 14.5 0.00 0.03 0.03 53 1007.8
20260505194253 20 41 1.6 6.4 0.00 0.03 0.03 54 1007.9
20260505193522 20 244 3.2 14.5 0.00 0.03 0.03 53 1007.9
20260505193021 20 316 4.8 14.5 0.00 0.03 0.03 53 1008.0
20260505192522 20 248 4.8 14.5 0.00 0.03 0.03 53 1007.9
20260505192022 20 129 3.2 16.1 0.00 0.03 0.03 53 1007.9
20260505191522 20 181 1.6 16.1 0.00 0.03 0.03 54 1008.0
20260505191021 20 276 1.6 16.1 0.00 0.03 0.03 53 1008.1
20260505190521 20 302 3.2 16.1 0.00 0.03 0.03 54 1008.2
20260505190022 20 248 3.2 16.1 0.00 0.03 0.03 53 1008.2
20260505185510 20 150 3.2 17.7 0.00 0.03 0.03 53 1008.1
20260505185005 20 274 4.8 17.7 0.00 0.03 0.03 51 1008.1
20260505184508 20 283 6.4 22.5 0.00 0.03 0.03 51 1008.0
20260505183959 20 159 4.8 24.1 0.00 0.03 0.03 49 1008.1
20260505183458 20 230 4.8 24.1 0.00 0.03 0.03 49 1008.1
20260505182957 21 314 8.0 27.4 0.00 0.03 0.03 47 1008.0
20260505182456 21 233 4.8 27.4 0.00 0.03 0.03 47 1008.0
20260505182227 21 278 3.2 20.9 0.00 0.03 0.03 47 1007.8
20260505181456 21 271 8.0 25.7 0.00 0.03 0.03 45 1007.8
20260505180956 21 182 9.7 25.7 0.00 0.03 0.03 47 1007.7
20260505180456 21 190 8.0 22.5 0.00 0.03 0.03 45 1007.9
20260505175953 21 131 8.0 20.9 0.00 0.03 0.03 48 1007.7
20260505175453 20 330 6.4 22.5 0.00 0.03 0.03 48 1007.7
20260505174953 20 249 3.2 24.1 0.00 0.03 0.03 51 1007.7
20260505174453 20 181 4.8 24.1 0.00 0.03 0.03 50 1007.8
20260505173955 21 240 6.4 25.7 0.00 0.03 0.03 50 1007.7
20260505173447 21 259 6.4 25.7 0.00 0.03 0.03 48 1007.7
20260505172946 21 224 4.8 17.7 0.00 0.03 0.03 48 1007.5
20260505172446 21 148 4.8 24.1 0.00 0.03 0.03 48 1007.5
20260505171945 21 236 4.8 24.1 0.00 0.03 0.03 51 1007.5
20260505171443 21 328 3.2 22.5 0.00 0.03 0.03 49 1007.6
20260505170945 21 193 6.4 22.5 0.00 0.03 0.03 49 1007.5
20260505170441 21 287 6.4 27.4 0.00 0.03 0.03 48 1007.6
20260505165942 21 238 6.4 27.4 0.00 0.03 0.03 48 1007.5
20260505165439 21 240 4.8 20.9 0.00 0.03 0.03 49 1007.5
20260505164939 21 249 4.8 17.7 0.00 0.03 0.03 50 1007.4
20260505164439 21 271 6.4 20.9 0.00 0.03 0.03 49 1007.5
20260505163939 21 144 6.4 20.9 0.00 0.03 0.03 48 1007.4
20260505163439 21 102 4.8 19.3 0.00 0.03 0.03 48 1007.3
20260505162939 21 240 4.8 19.3 0.00 0.03 0.03 48 1007.3
20260505162709 21 297 3.2 19.3 0.00 0.03 0.03 52 1007.3
20260505161938 21 179 3.2 19.3 0.00 0.03 0.03 51 1007.2
20260505161438 20 276 4.8 19.3 0.00 0.03 0.03 51 1007.3
20260505160941 20 307 6.4 19.3 0.00 0.03 0.03 51 1007.6
20260505160440 20 359 6.4 25.7 0.00 0.03 0.03 50 1007.6
20260505152937 20 243 4.8 24.1 0.00 0.03 0.03 60 1007.8
20260505152438 19 240 4.8 17.7 0.00 0.03 0.03 61 1007.8
20260505151938 19 247 3.2 16.1 0.00 0.03 0.03 61 1007.7
20260505151437 18 117 1.6 14.5 0.03 0.03 0.03 67 1007.7
20260505150936 18 221 4.8 17.7 0.03 0.03 0.03 64 1007.8
20260505150436 18 176 4.8 20.9 0.03 0.03 0.03 66 1007.7
20260505140432 17 198 1.6 12.9 0.00 0.00 0.00 67 1007.5
20260505130156 18 217 1.6 12.9 0.00 0.00 0.00 60 1007.4
20260505124923 17 98 1.6 12.9 0.00 0.00 0.00 60 1007.3
20260505124423 18 305 3.2 14.5 0.00 0.00 0.00 60 1007.3
20260505123923 18 234 3.2 14.5 0.00 0.00 0.00 59 1007.4
20260505123420 18 207 1.6 14.5 0.00 0.00 0.00 60 1007.4
20260505122920 18 241 1.6 14.5 0.00 0.00 0.00 60 1007.4
20260505122421 18 255 1.6 14.5 0.00 0.00 0.00 61 1007.2
20260505121920 17 271 1.6 19.3 0.00 0.00 0.00 62 1007.2
20260505121421 17 184 3.2 19.3 0.00 0.00 0.00 61 1007.3
20260505120921 17 151 1.6 11.3 0.00 0.00 0.00 61 1007.2
20260505120652 17 186 1.6 11.3 0.00 0.00 0.00 62 1007.2
20260505115921 17 207 1.6 11.3 0.00 0.00 0.00 62 1007.4
20260505115421 17 193 1.6 12.9 0.00 0.00 0.00 63 1007.3
20260505114920 16 205 1.6 12.9 0.00 0.00 0.00 63 1007.2
20260505114421 16 141 3.2 14.5 0.00 0.00 0.00 63 1007.2
20260505113920 16 195 3.2 14.5 0.00 0.00 0.00 63 1007.2
20260505113420 16 218 3.2 16.1 0.00 0.00 0.00 62 1007.1
20260505112920 16 172 3.2 16.1 0.00 0.00 0.00 62 1007.0
20260505112419 16 221 1.6 14.5 0.00 0.00 0.00 63 1007.1
20260505111919 16 182 1.6 11.3 0.00 0.00 0.00 64 1006.9
20260505111419 16 216 1.6 14.5 0.00 0.00 0.00 64 1006.8
20260505110920 16 173 1.6 19.3 0.00 0.00 0.00 64 1006.9
20260505110652 16 212 1.6 19.3 0.00 0.00 0.00 64 1006.8
20260505110154 16 266 0.0 9.7 0.00 0.00 0.00 65 1007.0